Вернуться в каталог

ARIANE 5 DEB

SYLDA

АктивенHEO
NORAD 52905·DEBRIS·🇫🇷 France

Запущен Jun 22, 2022 с Guiana Space Centre

Loading…

Ближайшие Пролёты (ближайшие 24 часа)

TLE

СвежийSource: Space-Track

Эпоха: Sep 14, 2026, 07:54 UTC

1 52905U 22067C   26257.32967929  .00032971  00000-0  54649-2 0  9999
2 52905   5.7620 312.4239 6406221  34.1641 353.9953  3.46042735 43937

Отслеживайте ARIANE 5 DEB в реальном времени с AllMySat

Download on the App Store